ヴォロビヨフ彗星

276P/Vorobjov (2024)

English version
Home page
Updated on August 14, 2020

---------------------------------------------------------------------

・ プロフィール

・ 写真集

・ 軌道要素

Epoch 2024 Nov. 26.0 TT = JDT 2460640.5
T 2024 Dec. 10.76730 TT                                 Rudenko
q   3.8986894            (2000.0)            P               Q
n   0.07964857     Peri.  199.26577     +0.64039023     -0.75647132
a   5.3499623      Node   211.33676     +0.73394428     +0.65370340
e   0.2712679      Incl.   14.80114     +0.22633192     +0.02056698
P  12.4
From 191 observations 2000 Dec. 19-2020 July 18, mean residual 0".4.

・ 光度変化

        m1 = -220.5 + 5 logΔ + 400   log r(t + 2030)  [     ,-1810]  (              〜2019年12月27日)
        m1 =    5.0 + 5 logΔ +  20.0 log r            [-1810,     ]  (2019年12月27日〜              )

---------------------------------------------------------------------

軌道要素はM.P.E.C. 2020-P19に掲載されたものです。
光度グラフはComet for Windowsで作成したものです。

---------------------------------------------------------------------

Copyright(C) Seiichi Yoshida (comet@aerith.net). All rights reserved.